loading
|

ONEWEB-0006, 44061

Orbit data source: Space-Track

ONEWEB-0006, 44061 is a payload satellite owned by One Web (UK) in LEO that was launched on Wed, 27 Feb 2019 UTC via a SOYUZ-ST-B launch vehicle from the French Guiana (FRGUI). Payloads include a variety of satellites, spacecraft, and rockets equipped with specific instruments for various scientific and technological missions. These include communications satellites like Starlink; space stations such as the ISS; scientific satellites like the Hubble; Earth observation satellites from companies like Planet Labs, Umbra, and HawkEye 360; GPS; miniature CubeSats for education and research; and military/defense satellites.

Loading next visibility...
Loading greatness...
ONEWEB-0006 details
Identifier
44061, 2019-010E
Orbit
LEO
Last TLE update14 hours ago
Origin
Flag of UKOne Web (UK)
ManufacturerAirbus/Toulouse
Mission statusOperational
MissionCommercial Communications
Bus & MotorARROW, Unknown motor
Mass148 kg wet, ~140 kg dry
Launch date (UTC)
2019-02-27 (6 years ago)
Launch vehicle
SOYUZ-ST-B
Launch site
French Guiana (FRGUI)
Object type
Payload
Rocket body
Debris
Radar Cross SectionLarge (>1 m²)

Expand to show TLE details & history

TLE from 14 hours ago
0 ONEWEB-0006
1 44061U 19010E   24261.37412079 -.00000363  00000-0 -99842-3 0  9993
2 44061  87.9093  26.1063 0001802 107.9690 252.1637 13.15547194267566
Epoch: 2024-09-17T08:58Z
Definitive object data (Epoch: 2024-09-17T08:58:44.036Z)
Latitude0.00001°
Longitude-105.36688°
Altitude1,205.09 km
Speed7.251 km/s
True Right ascension01h 44m 25s
True Declination0° 00' 00"
Sunlit
Object was in full shadow at TLE epoch
Predictive object data (real-time)
Latitude26.46791°
Longitude73.48491°
Altitude1,204.076 km
Speed7.255 km/s
Apparent Right ascension10h 53m 41s
Apparent Declination-12° 39' 26"
Sunlit
Object is in daylight
Predictive observer data (real-time)
Local Sidereal Time15:20:58
Azimuth245.199° WSW
Elevation8.855°
Doppler factor1
Orbital elements
Apogee1,200.253 km
Perigee1,197.523 km
Semi-major axis7,577.025 km
Eccentricity0.0001802
Inclination87.9093°
RAAN26.1063°
Arg. of periapsis107.969°
True anomaly252.14404°
Mean anomaly252.1637°
Eccentric anomaly252.15387°
Mean motion3.29075 °/min
BSTAR-0.00099842
Period109.4 mins
No data available

ONEWEB-0006 Visibility forecast

Observer location: 39.9160978°, -105.1181434

ONEWEB-0006 is not visible in the next 10 days
Span
Click to sort rows by Start time (UTC) header in descending order
Start Az.
Max El. time (UTC)
Max El. Az.
Max El.
End time (UTC)
End Az.